Regional Weather Roundup
Issued by NWS Cleveland, OH

Home | Current Version | Previous Version | Graphics & Text | Print | Product List | Glossary On
Versions: 1 2 3 4 5 6 7 8 9 10 11 12 13 14 15 16 17 18 19 20 21 22 23 24 25 26 27 28 29 30 31 32 33 34 35 36 37 38 39 40 41 42 43 44 45 46 47 48 49 50
000
ASUS41 KCLE 221300
RWRCLE
OHIO REGIONAL WEATHER ROUNDUP
NATIONAL WEATHER SERVICE WILMINGTON, OH
900 AM EDT MON SEP 22 2014

NOTE: "FAIR" INDICATES FEW OR NO CLOUDS BELOW 12,000 FEET WITH NO
SIGNIFICANT WEATHER AND/OR OBSTRUCTIONS TO VISIBILITY.

OHZ001>008-015>018-024>027-034-035-043-044-221400-
   NORTHWEST OHIO

CITY           SKY/WX    TMP DP  RH WIND       PRES   REMARKS
DEFIANCE       CLOUDY   N/A N/A N/A N5        30.21R
FINDLAY        CLOUDY    49  38  65 N12       30.19R
TOLEDO EXPRESS CLOUDY    48  37  65 N10       30.19R
TOLEDO METCALF CLOUDY    49  36  61 N7        30.20R
LIMA           CLOUDY    49  38  65 N7        30.20R
$$

OHZ009>014-019>023-028>033-038-089-221400-
   NORTHEAST OHIO

CITY           SKY/WX    TMP DP  RH WIND       PRES   REMARKS
CLE-HOPKINS    CLOUDY    52  41  66 NW9       30.14R
CLE-LAKEFRONT  CLOUDY    54  42  64 NW14      30.11R
CUY CO. ARPT   CLOUDY    54  45  71 N16       30.11R
LORAIN-ELYRIA  CLOUDY    54  41  61 NW7       30.14R
ASHTABULA      CLOUDY    51  46  83 NW6       30.09R
AKRON-CANTON   PTSUNNY   52  42  69 NW7       30.11R
WOOSTER        NOT AVBL
MANSFIELD      CLOUDY    49  42  77 NW7       30.15R
YOUNGSTOWN     CLOUDY    51  46  83 NW7       30.08R
$$

OHZ042-051>053-060>062-070>072-077>081-221400-
  SOUTHWEST OHIO

CITY           SKY/WX    TMP DP  RH WIND       PRES   REMARKS
CINC-COVINGTON PTSUNNY   49  41  74 N10       30.20R
CINC-LUNKEN    PTSUNNY   50  41  71 N8        30.22R
HAMILTON       SUNNY     49  42  77 N8        30.21S
DAYTON         NOT AVBL
WRIGHT-PAT AFB CLOUDY    49  42  76 N9        30.19R
DAYTON GENERAL PTSUNNY   48  43  82 N8        30.18R
WILMINGTON     CLOUDY    50  43  77 N12       30.18R
$$

OHZ036-037-039>041-045>050-054>059-063>069-073>076-082>088-221400-
  CENTRAL AND SOUTHEAST OHIO

CITY           SKY/WX    TMP DP  RH WIND       PRES   REMARKS
COLUMBUS       CLOUDY    52  40  63 N12       30.17R
OSU AIRPORT    CLOUDY    50  38  63 N9        30.18R
BOLTON FIELD   CLOUDY    50  43  76 NW8       30.18R
RICKENBACK AFB NOT AVBL
NEWARK         CLOUDY    51  44  77 NW10      30.16R
MARION         CLOUDY    49  39  68 N9        30.18R
LANCASTER      CLOUDY    52  44  74 N9        30.17R
ZANESVILLE     CLOUDY    53  46  77 NW7       30.15R
NEW PHILLY     PTSUNNY   54  46  74 NW8       30.14R
$$



USA.gov is the U.S. government's official web portal to all federal, state and local government web resources and services.